AZU4360 SBSL-SBRF

Flight info

Callsign AZU4360
Flight time 1h 39m
Altitude 37000
Route KADOT DCT VULBU DCT POVPO DCT NEKAL DCT KIMOK
Aircraft A20N/M-SDE2E3FGHIRWXY/LB1

Departure

Time 2026-04-16 00:34
Airport Marechal Cunha Machado International Airport (SBSL)

Arrival

Time 2026-04-16 02:13
Airport Recife/Guararapes - Gilberto Freyre International Airport (SBRF)
Time Latitude Longitude Altitude Speed Heading
2026-04-16 00:16 -2.58439 -44.23653 161 ft 0 kts 340°
2026-04-16 00:24 -2.58440 -44.23652 161 ft 2 kts 340°
2026-04-16 00:24 -2.58456 -44.23647 161 ft 2 kts 342°
2026-04-16 00:25 -2.58472 -44.23642 161 ft 2 kts 345°
2026-04-16 00:25 -2.58488 -44.23639 161 ft 2 kts 356°
2026-04-16 00:25 -2.58503 -44.23643 160 ft 2 kts 51°
2026-04-16 00:25 -2.58508 -44.23651 160 ft 1 kts 68°
2026-04-16 00:28 -2.58506 -44.23644 160 ft 2 kts 68°
2026-04-16 00:28 -2.58499 -44.23626 161 ft 4 kts 70°
2026-04-16 00:28 -2.58487 -44.23593 161 ft 6 kts 70°
2026-04-16 00:28 -2.58468 -44.23541 161 ft 9 kts 69°
2026-04-16 00:29 -2.58444 -44.23472 161 ft 11 kts 78°
2026-04-16 00:29 -2.58473 -44.23409 161 ft 10 kts 131°
2026-04-16 00:29 -2.58535 -44.23405 162 ft 10 kts 217°
2026-04-16 00:29 -2.58590 -44.23449 163 ft 11 kts 219°
2026-04-16 00:30 -2.58657 -44.23504 164 ft 14 kts 219°
2026-04-16 00:30 -2.58742 -44.23572 164 ft 17 kts 219°
2026-04-16 00:30 -2.58847 -44.23655 165 ft 21 kts 218°
2026-04-16 00:30 -2.58964 -44.23748 166 ft 22 kts 217°
2026-04-16 00:31 -2.59089 -44.23853 167 ft 24 kts 217°
2026-04-16 00:31 -2.59225 -44.23961 170 ft 26 kts 219°
2026-04-16 00:31 -2.59367 -44.24077 173 ft 27 kts 219°
2026-04-16 00:31 -2.59514 -44.24195 177 ft 27 kts 219°
2026-04-16 00:32 -2.59635 -44.24307 179 ft 17 kts 243°
2026-04-16 00:32 -2.59685 -44.24351 181 ft 8 kts 148°
2026-04-16 00:32 -2.59684 -44.24332 181 ft 0 kts 42°
2026-04-16 00:32 -2.59682 -44.24330 180 ft 1 kts 39°
2026-04-16 00:33 -2.59643 -44.24299 180 ft 29 kts 39°
2026-04-16 00:33 -2.59274 -44.24001 171 ft 106 kts 39°
2026-04-16 00:33 -2.58501 -44.23367 205 ft 172 kts 42°
2026-04-16 00:33 -2.57542 -44.22565 768 ft 189 kts 42°
2026-04-16 00:34 -2.56498 -44.21718 1474 ft 195 kts 40°
2026-04-16 00:34 -2.55427 -44.20901 2213 ft 193 kts 39°
2026-04-16 00:34 -2.54313 -44.20105 2700 ft 203 kts 37°
2026-04-16 00:34 -2.53232 -44.19145 3098 ft 215 kts 54°
2026-04-16 00:35 -2.52612 -44.17722 3421 ft 236 kts 83°
2026-04-16 00:35 -2.52830 -44.16061 3851 ft 251 kts 115°
2026-04-16 00:35 -2.53978 -44.14732 4497 ft 259 kts 140°
2026-04-16 00:35 -2.55404 -44.13611 5208 ft 261 kts 134°
2026-04-16 00:36 -2.56353 -44.12073 5916 ft 263 kts 112°
2026-04-16 00:36 -2.56983 -44.10352 6703 ft 265 kts 108°
2026-04-16 00:36 -2.57545 -44.08585 7507 ft 269 kts 107°
2026-04-16 00:36 -2.58096 -44.06778 8349 ft 273 kts 106°
2026-04-16 00:37 -2.58651 -44.04944 9239 ft 277 kts 106°
2026-04-16 00:37 -2.59215 -44.03093 10017 ft 278 kts 106°
2026-04-16 00:37 -2.59791 -44.01197 10416 ft 293 kts 106°
2026-04-16 00:37 -2.60399 -43.99190 10674 ft 311 kts 106°
2026-04-16 00:38 -2.61041 -43.97072 11004 ft 324 kts 106°
2026-04-16 00:38 -2.61702 -43.94897 11500 ft 330 kts 106°
2026-04-16 00:38 -2.62374 -43.92681 12067 ft 335 kts 106°
2026-04-16 00:38 -2.63054 -43.90442 12642 ft 339 kts 106°
2026-04-16 00:39 -2.63743 -43.88172 13242 ft 343 kts 106°
2026-04-16 00:39 -2.64438 -43.85880 13817 ft 347 kts 106°
2026-04-16 00:39 -2.65140 -43.83565 14351 ft 350 kts 106°
2026-04-16 00:39 -2.65850 -43.81225 14914 ft 353 kts 106°
2026-04-16 00:40 -2.66564 -43.78872 15477 ft 355 kts 106°
2026-04-16 00:40 -2.67285 -43.76494 16027 ft 359 kts 106°
2026-04-16 00:40 -2.68011 -43.74098 16580 ft 362 kts 106°
2026-04-16 00:40 -2.68744 -43.71680 17110 ft 365 kts 106°
2026-04-16 00:41 -2.69484 -43.69239 17626 ft 368 kts 106°
2026-04-16 00:41 -2.70229 -43.66782 18131 ft 371 kts 106°
2026-04-16 00:41 -2.70981 -43.64301 18543 ft 374 kts 106°
2026-04-16 00:41 -2.71743 -43.61806 18963 ft 376 kts 107°
2026-04-16 00:42 -2.72695 -43.59360 19385 ft 379 kts 115°
2026-04-16 00:42 -2.74027 -43.57074 19798 ft 382 kts 123°
2026-04-16 00:42 -2.75572 -43.54901 20203 ft 385 kts 126°
2026-04-16 00:42 -2.77216 -43.52777 20619 ft 388 kts 128°
2026-04-16 00:43 -2.78912 -43.50669 21026 ft 390 kts 128°
2026-04-16 00:43 -2.80608 -43.48582 21446 ft 393 kts 128°
2026-04-16 00:43 -2.82350 -43.46427 21878 ft 395 kts 128°
2026-04-16 00:43 -2.84074 -43.44277 22304 ft 397 kts 128°
2026-04-16 00:44 -2.85800 -43.42108 22726 ft 400 kts 128°
2026-04-16 00:44 -2.87533 -43.39917 23117 ft 403 kts 128°
2026-04-16 00:44 -2.89276 -43.37705 23529 ft 406 kts 128°
2026-04-16 00:44 -2.91025 -43.35483 23864 ft 408 kts 128°
2026-04-16 00:45 -2.92764 -43.33271 24202 ft 411 kts 128°
2026-04-16 00:45 -2.94564 -43.30983 24541 ft 414 kts 128°
2026-04-16 00:45 -2.96327 -43.28743 24878 ft 417 kts 128°
2026-04-16 00:45 -2.98124 -43.26459 25210 ft 419 kts 128°
2026-04-16 00:46 -2.99935 -43.24159 25554 ft 422 kts 128°
2026-04-16 00:46 -3.01759 -43.21841 25890 ft 425 kts 128°
2026-04-16 00:46 -3.03591 -43.19514 26219 ft 427 kts 128°
2026-04-16 00:46 -3.05437 -43.17169 26544 ft 430 kts 128°
2026-04-16 00:47 -3.07290 -43.14815 26881 ft 432 kts 128°
2026-04-16 00:47 -3.09154 -43.12447 27190 ft 434 kts 128°
2026-04-16 00:47 -3.11025 -43.10070 27539 ft 436 kts 128°
2026-04-16 00:47 -3.12907 -43.07679 27817 ft 439 kts 128°
2026-04-16 00:48 -3.14799 -43.05274 28118 ft 441 kts 128°
2026-04-16 00:48 -3.16705 -43.02851 28380 ft 444 kts 128°
2026-04-16 00:48 -3.18621 -43.00417 28676 ft 447 kts 128°
2026-04-16 00:48 -3.20543 -42.97974 29025 ft 448 kts 128°
2026-04-16 00:49 -3.22474 -42.95519 29283 ft 450 kts 128°
2026-04-16 00:50 -3.36243 -42.78011 31249 ft 459 kts 129°
2026-04-16 00:51 -3.38209 -42.75511 31658 ft 456 kts 129°
2026-04-16 00:51 -3.40164 -42.73024 31987 ft 455 kts 129°
2026-04-16 00:51 -3.42122 -42.70533 32263 ft 456 kts 129°
2026-04-16 00:51 -3.44083 -42.68038 32566 ft 456 kts 129°
2026-04-16 00:52 -3.46051 -42.65536 32916 ft 457 kts 129°
2026-04-16 00:52 -3.48013 -42.63039 33324 ft 456 kts 129°
2026-04-16 00:52 -3.49975 -42.60544 33641 ft 455 kts 129°
2026-04-16 00:52 -3.51931 -42.58056 33934 ft 455 kts 129°
2026-04-16 00:53 -3.53885 -42.55567 34179 ft 454 kts 129°
2026-04-16 00:53 -3.55836 -42.53084 34423 ft 454 kts 129°
2026-04-16 00:53 -3.57786 -42.50601 34652 ft 453 kts 129°
2026-04-16 00:53 -3.59733 -42.48122 34888 ft 453 kts 129°
2026-04-16 00:54 -3.61655 -42.45675 35118 ft 452 kts 129°
2026-04-16 00:54 -3.63598 -42.43202 35326 ft 452 kts 129°
2026-04-16 00:54 -3.65539 -42.40730 35549 ft 452 kts 129°
2026-04-16 00:54 -3.67484 -42.38253 35683 ft 454 kts 128°
2026-04-16 00:55 -3.69406 -42.35738 35808 ft 455 kts 126°
2026-04-16 00:55 -3.71250 -42.33165 36049 ft 454 kts 125°
2026-04-16 00:55 -3.73047 -42.30570 36226 ft 454 kts 124°
2026-04-16 00:55 -3.74826 -42.27966 36414 ft 454 kts 124°
2026-04-16 00:56 -3.76608 -42.25355 36583 ft 454 kts 124°
2026-04-16 00:56 -3.78387 -42.22756 36801 ft 453 kts 124°
2026-04-16 00:56 -3.80173 -42.20159 36911 ft 453 kts 124°
2026-04-16 00:56 -3.81968 -42.17561 36920 ft 453 kts 125°
2026-04-16 00:57 -3.87350 -42.09795 36925 ft 453 kts 125°
2026-04-16 00:58 -3.90937 -42.04623 36922 ft 452 kts 125°
2026-04-16 00:58 -3.94522 -41.99451 36924 ft 452 kts 125°
2026-04-16 00:59 -3.98108 -41.94277 36924 ft 452 kts 125°
2026-04-16 00:59 -4.01696 -41.89097 36925 ft 453 kts 125°
2026-04-16 01:00 -4.05286 -41.83915 36927 ft 453 kts 125°
2026-04-16 01:00 -4.08854 -41.78762 36929 ft 453 kts 125°
2026-04-16 01:01 -4.12470 -41.73540 36925 ft 454 kts 125°
2026-04-16 01:01 -4.16042 -41.68380 36927 ft 454 kts 125°
2026-04-16 01:02 -4.19638 -41.63185 36924 ft 454 kts 125°
2026-04-16 01:02 -4.23257 -41.57956 36924 ft 453 kts 125°
2026-04-16 01:03 -4.26825 -41.52798 36928 ft 453 kts 125°
2026-04-16 01:03 -4.30417 -41.47606 36930 ft 455 kts 125°
2026-04-16 01:04 -4.34043 -41.42364 36935 ft 459 kts 125°
2026-04-16 01:04 -4.37678 -41.37107 36939 ft 459 kts 125°
2026-04-16 01:05 -4.41316 -41.31844 36932 ft 459 kts 125°
2026-04-16 01:05 -4.44943 -41.26597 36932 ft 458 kts 125°
2026-04-16 01:06 -4.48571 -41.21347 36942 ft 458 kts 125°
2026-04-16 01:06 -4.52199 -41.16096 36947 ft 458 kts 125°
2026-04-16 01:07 -4.55807 -41.10831 36947 ft 458 kts 123°
2026-04-16 01:07 -4.59120 -41.05431 36943 ft 458 kts 121°
2026-04-16 01:08 -4.62343 -40.99908 36947 ft 461 kts 121°
2026-04-16 01:08 -4.65597 -40.94356 36947 ft 462 kts 121°
2026-04-16 01:09 -4.68879 -40.88811 36943 ft 462 kts 121°
2026-04-16 01:09 -4.72171 -40.83272 36944 ft 462 kts 121°
2026-04-16 01:10 -4.75463 -40.77736 36944 ft 462 kts 121°
2026-04-16 01:10 -4.78754 -40.72198 36946 ft 462 kts 121°
2026-04-16 01:11 -4.82041 -40.66662 36943 ft 462 kts 121°
2026-04-16 01:11 -4.85324 -40.61132 36941 ft 461 kts 121°
2026-04-16 01:12 -4.88075 -40.56498 36939 ft 461 kts 121°
2026-04-16 01:12 -4.91358 -40.50966 36938 ft 461 kts 121°
2026-04-16 01:13 -4.94637 -40.45440 36939 ft 460 kts 121°
2026-04-16 01:13 -4.97876 -40.39978 36938 ft 458 kts 121°
2026-04-16 01:14 -5.01134 -40.34484 36940 ft 458 kts 121°
2026-04-16 01:14 -5.04390 -40.28994 36944 ft 458 kts 121°
2026-04-16 01:15 -5.07645 -40.23503 36944 ft 458 kts 121°
2026-04-16 01:15 -5.10900 -40.18011 36947 ft 458 kts 121°
2026-04-16 01:16 -5.14159 -40.12509 36944 ft 458 kts 121°
2026-04-16 01:16 -5.17414 -40.07014 36950 ft 458 kts 121°
2026-04-16 01:17 -5.20672 -40.01513 36949 ft 459 kts 121°
2026-04-16 01:17 -5.23933 -39.96005 36950 ft 460 kts 121°
2026-04-16 01:18 -5.27198 -39.90488 36951 ft 460 kts 121°
2026-04-16 01:18 -5.30461 -39.84973 36944 ft 460 kts 121°
2026-04-16 01:19 -5.33726 -39.79454 36949 ft 460 kts 121°
2026-04-16 01:19 -5.36993 -39.73931 36943 ft 460 kts 121°
2026-04-16 01:20 -5.40258 -39.68409 36941 ft 460 kts 121°
2026-04-16 01:20 -5.43524 -39.62884 36936 ft 460 kts 121°
2026-04-16 01:21 -5.46768 -39.57395 36937 ft 460 kts 121°
2026-04-16 01:21 -5.50033 -39.51868 36936 ft 460 kts 121°
2026-04-16 01:22 -5.53298 -39.46340 36929 ft 461 kts 121°
2026-04-16 01:22 -5.56564 -39.40810 36931 ft 461 kts 121°
2026-04-16 01:23 -5.59831 -39.35276 36929 ft 461 kts 121°
2026-04-16 01:23 -5.63102 -39.29733 36925 ft 462 kts 121°
2026-04-16 01:24 -5.66378 -39.24181 36926 ft 462 kts 121°
2026-04-16 01:24 -5.69651 -39.18632 36925 ft 462 kts 121°
2026-04-16 01:25 -5.72926 -39.13077 36924 ft 462 kts 121°
2026-04-16 01:25 -5.76233 -39.07552 36924 ft 461 kts 124°
2026-04-16 01:26 -5.79864 -39.02250 36923 ft 460 kts 126°
2026-04-16 01:26 -5.83528 -38.96980 36922 ft 460 kts 126°
2026-04-16 01:27 -5.87188 -38.91697 36924 ft 460 kts 126°
2026-04-16 01:27 -5.90840 -38.86417 36925 ft 461 kts 126°
2026-04-16 01:28 -5.94493 -38.81132 36920 ft 461 kts 126°
2026-04-16 01:28 -5.98158 -38.75829 36924 ft 463 kts 126°
2026-04-16 01:29 -6.01832 -38.70511 36927 ft 463 kts 126°
2026-04-16 01:29 -6.05504 -38.65193 36931 ft 463 kts 126°
2026-04-16 01:30 -6.09171 -38.59882 36929 ft 462 kts 126°
2026-04-16 01:30 -6.12837 -38.54569 36931 ft 463 kts 126°
2026-04-16 01:31 -6.16502 -38.49258 36933 ft 463 kts 126°
2026-04-16 01:31 -6.20167 -38.43944 36936 ft 463 kts 126°
2026-04-16 01:32 -6.23809 -38.38664 36933 ft 463 kts 126°
2026-04-16 01:32 -6.27475 -38.33346 36935 ft 463 kts 126°
2026-04-16 01:33 -6.31162 -38.27996 36936 ft 463 kts 126°
2026-04-16 01:33 -6.34804 -38.22709 36937 ft 463 kts 126°
2026-04-16 01:34 -6.38468 -38.17390 36940 ft 463 kts 126°
2026-04-16 01:34 -6.42134 -38.12066 36937 ft 463 kts 126°
2026-04-16 01:35 -6.45798 -38.06745 36934 ft 463 kts 126°
2026-04-16 01:35 -6.49462 -38.01421 36937 ft 463 kts 126°
2026-04-16 01:36 -6.53125 -37.96096 36926 ft 463 kts 126°
2026-04-16 01:36 -6.56785 -37.90775 36929 ft 462 kts 125°
2026-04-16 01:37 -6.60440 -37.85459 36928 ft 462 kts 125°
2026-04-16 01:37 -6.64100 -37.80134 36927 ft 463 kts 126°
2026-04-16 01:38 -6.67769 -37.74795 36931 ft 464 kts 126°
2026-04-16 01:38 -6.71436 -37.69457 36926 ft 464 kts 126°
2026-04-16 01:39 -6.75107 -37.64112 36926 ft 464 kts 126°
2026-04-16 01:39 -6.78777 -37.58765 36928 ft 464 kts 126°
2026-04-16 01:40 -6.82449 -37.53415 36930 ft 464 kts 126°
2026-04-16 01:40 -6.86121 -37.48064 36928 ft 465 kts 126°
2026-04-16 01:41 -6.89790 -37.42714 36929 ft 464 kts 125°
2026-04-16 01:41 -6.93460 -37.37362 36932 ft 464 kts 125°
2026-04-16 01:42 -6.97127 -37.32011 36931 ft 464 kts 125°
2026-04-16 01:42 -7.00794 -37.26660 36934 ft 464 kts 125°
2026-04-16 01:43 -7.04435 -37.21345 36944 ft 464 kts 126°
2026-04-16 01:43 -7.08103 -37.15988 36941 ft 464 kts 125°
2026-04-16 01:44 -7.11769 -37.10634 36948 ft 465 kts 125°
2026-04-16 01:44 -7.15438 -37.05273 36943 ft 464 kts 125°
2026-04-16 01:45 -7.19106 -36.99911 36958 ft 465 kts 125°
2026-04-16 01:45 -7.22771 -36.94551 36959 ft 465 kts 126°
2026-04-16 01:46 -7.26438 -36.89188 36962 ft 465 kts 126°
2026-04-16 01:46 -7.30104 -36.83823 36968 ft 465 kts 125°
2026-04-16 01:47 -7.33624 -36.78363 36966 ft 466 kts 115°
2026-04-16 01:47 -7.35909 -36.72263 36971 ft 466 kts 109°
2026-04-16 01:48 -7.38012 -36.66074 36569 ft 467 kts 109°
2026-04-16 01:48 -7.39077 -36.62953 35622 ft 476 kts 109°
2026-04-16 01:48 -7.40163 -36.59781 34858 ft 481 kts 109°
2026-04-16 01:48 -7.41262 -36.56574 34107 ft 486 kts 109°
2026-04-16 01:49 -7.42369 -36.53348 33407 ft 488 kts 109°
2026-04-16 01:49 -7.43474 -36.50130 32884 ft 485 kts 108°
2026-04-16 01:49 -7.44570 -36.46937 32414 ft 480 kts 108°
2026-04-16 01:49 -7.45659 -36.43764 31939 ft 476 kts 108°
2026-04-16 01:50 -7.46739 -36.40619 31419 ft 474 kts 108°
2026-04-16 01:50 -7.47809 -36.37501 31028 ft 468 kts 108°
2026-04-16 01:50 -7.48868 -36.34412 30544 ft 465 kts 108°
2026-04-16 01:50 -7.49922 -36.31340 30094 ft 462 kts 108°
2026-04-16 01:51 -7.50967 -36.28291 29599 ft 458 kts 108°
2026-04-16 01:51 -7.52002 -36.25271 29140 ft 454 kts 108°
2026-04-16 01:51 -7.53025 -36.22285 28671 ft 449 kts 108°
2026-04-16 01:51 -7.54042 -36.19317 28178 ft 446 kts 108°
2026-04-16 01:52 -7.55050 -36.16374 27714 ft 442 kts 108°
2026-04-16 01:52 -7.56051 -36.13451 27225 ft 439 kts 108°
2026-04-16 01:52 -7.57042 -36.10554 26785 ft 435 kts 109°
2026-04-16 01:52 -7.58027 -36.07678 26341 ft 432 kts 109°
2026-04-16 01:53 -7.59002 -36.04827 25885 ft 429 kts 109°
2026-04-16 01:53 -7.59970 -36.01995 25465 ft 426 kts 109°
2026-04-16 01:53 -7.60932 -35.99183 25073 ft 422 kts 109°
2026-04-16 01:53 -7.61883 -35.96403 24648 ft 418 kts 109°
2026-04-16 01:54 -7.62816 -35.93675 24209 ft 416 kts 109°
2026-04-16 01:54 -7.63755 -35.90926 23782 ft 413 kts 109°
2026-04-16 01:54 -7.64700 -35.88162 23341 ft 410 kts 110°
2026-04-16 01:54 -7.65611 -35.85492 22885 ft 406 kts 110°
2026-04-16 01:55 -7.66539 -35.82777 22408 ft 402 kts 110°
2026-04-16 01:55 -7.67433 -35.80158 21938 ft 399 kts 110°
2026-04-16 01:55 -7.68331 -35.77527 21484 ft 395 kts 110°
2026-04-16 01:55 -7.69219 -35.74926 20833 ft 390 kts 110°
2026-04-16 01:56 -7.70094 -35.72362 20161 ft 385 kts 110°
2026-04-16 01:56 -7.70960 -35.69825 19514 ft 380 kts 110°
2026-04-16 01:56 -7.71819 -35.67307 18831 ft 378 kts 110°
2026-04-16 01:56 -7.72539 -35.64784 18195 ft 374 kts 99°
2026-04-16 01:57 -7.72609 -35.62175 17484 ft 371 kts 88°
2026-04-16 01:57 -7.72415 -35.59603 16795 ft 366 kts 85°
2026-04-16 01:57 -7.72182 -35.57063 16127 ft 361 kts 85°
2026-04-16 01:57 -7.71951 -35.54561 15558 ft 354 kts 85°
2026-04-16 01:58 -7.71729 -35.52106 14904 ft 350 kts 85°
2026-04-16 01:58 -7.71514 -35.49670 14245 ft 347 kts 85°
2026-04-16 01:58 -7.71304 -35.47265 13626 ft 343 kts 85°
2026-04-16 01:58 -7.71166 -35.45682 13151 ft 341 kts 85°
2026-04-16 01:59 -7.70961 -35.43321 12477 ft 336 kts 85°
2026-04-16 01:59 -7.70759 -35.40986 11842 ft 332 kts 85°
2026-04-16 01:59 -7.70559 -35.38679 11196 ft 328 kts 85°
2026-04-16 01:59 -7.70363 -35.36418 10736 ft 319 kts 85°
2026-04-16 02:00 -7.70173 -35.34237 10399 ft 306 kts 85°
2026-04-16 02:00 -7.69989 -35.32124 10101 ft 298 kts 85°
2026-04-16 02:00 -7.69812 -35.30089 9817 ft 287 kts 85°
2026-04-16 02:00 -7.69638 -35.28094 9408 ft 286 kts 85°
2026-04-16 02:01 -7.69464 -35.26093 9087 ft 286 kts 85°
2026-04-16 02:01 -7.69290 -35.24101 8753 ft 284 kts 86°
2026-04-16 02:01 -7.69118 -35.22124 8430 ft 282 kts 86°
2026-04-16 02:01 -7.68946 -35.20161 8115 ft 280 kts 86°
2026-04-16 02:02 -7.68776 -35.18209 7794 ft 279 kts 86°
2026-04-16 02:02 -7.68606 -35.16262 7481 ft 278 kts 86°
2026-04-16 02:02 -7.68443 -35.14398 7191 ft 277 kts 86°
2026-04-16 02:02 -7.68275 -35.12472 6872 ft 275 kts 86°
2026-04-16 02:03 -7.68115 -35.10556 6566 ft 274 kts 88°
2026-04-16 02:03 -7.68291 -35.08668 6251 ft 270 kts 108°
2026-04-16 02:03 -7.69209 -35.07051 5929 ft 267 kts 134°
2026-04-16 02:04 -7.72489 -35.05390 5339 ft 267 kts 161°
2026-04-16 02:04 -7.74259 -35.04838 5041 ft 266 kts 162°
2026-04-16 02:04 -7.76018 -35.04295 4781 ft 262 kts 162°
2026-04-16 02:04 -7.77722 -35.03762 4623 ft 251 kts 161°
2026-04-16 02:05 -7.79349 -35.03247 4445 ft 239 kts 161°
2026-04-16 02:05 -7.80889 -35.02757 4232 ft 227 kts 161°
2026-04-16 02:05 -7.82334 -35.02294 4123 ft 208 kts 161°
2026-04-16 02:05 -7.83677 -35.01863 3884 ft 199 kts 161°
2026-04-16 02:06 -7.84971 -35.01446 3672 ft 189 kts 161°
2026-04-16 02:06 -7.86181 -35.01051 3510 ft 177 kts 161°
2026-04-16 02:06 -7.87317 -35.00678 3300 ft 168 kts 160°
2026-04-16 02:06 -7.88413 -35.00317 3005 ft 164 kts 160°
2026-04-16 02:07 -7.89497 -34.99958 2677 ft 165 kts 161°
2026-04-16 02:07 -7.90599 -34.99593 2369 ft 166 kts 161°
2026-04-16 02:07 -7.91692 -34.99232 2107 ft 164 kts 161°
2026-04-16 02:07 -7.92765 -34.98878 1926 ft 161 kts 161°
2026-04-16 02:08 -7.93834 -34.98524 1812 ft 162 kts 161°
2026-04-16 02:08 -7.94904 -34.98171 1780 ft 158 kts 162°
2026-04-16 02:08 -7.95892 -34.97844 1746 ft 147 kts 162°
2026-04-16 02:08 -7.96844 -34.97530 1736 ft 142 kts 161°
2026-04-16 02:09 -7.97793 -34.97218 1708 ft 144 kts 162°
2026-04-16 02:09 -7.98745 -34.96904 1702 ft 144 kts 161°
2026-04-16 02:09 -7.99683 -34.96594 1692 ft 139 kts 162°
2026-04-16 02:09 -8.00601 -34.96291 1701 ft 138 kts 162°
2026-04-16 02:10 -8.01513 -34.95991 1696 ft 138 kts 162°
2026-04-16 02:10 -8.02425 -34.95691 1703 ft 138 kts 162°
2026-04-16 02:10 -8.03340 -34.95400 1675 ft 138 kts 162°
2026-04-16 02:10 -8.04254 -34.95096 1498 ft 139 kts 162°
2026-04-16 02:11 -8.05170 -34.94792 1313 ft 138 kts 162°
2026-04-16 02:11 -8.06085 -34.94492 1125 ft 138 kts 162°
2026-04-16 02:11 -8.07002 -34.94189 944 ft 139 kts 161°
2026-04-16 02:11 -8.07921 -34.93885 774 ft 139 kts 161°
2026-04-16 02:12 -8.08844 -34.93575 626 ft 142 kts 162°
2026-04-16 02:12 -8.09782 -34.93250 404 ft 142 kts 162°
2026-04-16 02:12 -8.10713 -34.92945 235 ft 141 kts 163°
2026-04-16 02:12 -8.11648 -34.92646 56 ft 139 kts 163°
2026-04-16 02:13 -8.12476 -34.92371 40 ft 98 kts 162°
2026-04-16 02:13 -8.12881 -34.92236 40 ft 34 kts 161°
2026-04-16 02:13 -8.08808 -34.93587 628 ft 141 kts 162°
2026-04-16 02:13 -8.09745 -34.93263 413 ft 142 kts 162°
2026-04-16 02:14 -8.10676 -34.92957 238 ft 141 kts 162°
2026-04-16 02:14 -8.11614 -34.92658 60 ft 140 kts 163°
2026-04-16 02:14 -8.12440 -34.92383 40 ft 103 kts 162°
2026-04-16 02:14 -8.12863 -34.92242 39 ft 36 kts 161°
2026-04-16 02:15 -8.10858 -34.92899 203 ft 142 kts 164°
2026-04-16 02:15 -8.11790 -34.92600 46 ft 136 kts 163°
2026-04-16 02:15 -8.12569 -34.92340 40 ft 85 kts 161°
2026-04-16 02:15 -8.12901 -34.92229 42 ft 25 kts 161°
2026-04-16 02:16 -8.11831 -34.92586 45 ft 135 kts 163°
2026-04-16 02:16 -8.12595 -34.92331 39 ft 81 kts 162°
2026-04-16 02:16 -8.12917 -34.92224 41 ft 23 kts 161°
2026-04-16 02:16 -8.13068 -34.92173 39 ft 22 kts 161°
2026-04-16 02:17 -8.13215 -34.92121 39 ft 22 kts 150°
2026-04-16 02:17 -8.13272 -34.92047 40 ft 12 kts 123°
2026-04-16 02:17 -8.13267 -34.91983 39 ft 9 kts 37°
2026-04-16 02:17 -8.13229 -34.91968 39 ft 1 kts 59°
2026-04-16 02:18 -8.13229 -34.91964 39 ft 0 kts 77°
2026-04-16 02:18 -8.13227 -34.91953 41 ft 3 kts 81°
2026-04-16 02:18 -8.13220 -34.91925 41 ft 5 kts 72°
2026-04-16 02:18 -8.13211 -34.91894 41 ft 0 kts 73°